• In Deutschland
  • Länderverzeichnis
  • Für 7 Tage
  • Wassertemperatur
  • Satellitenkarten
  • Wetterkarte
  • Widgets
  • user-avatar
    Anmelden

    Stündliche Wetter Goychay

    Heute, 25 Juni, Montag

    Zeit Temperatur Niederschläge Wind Luftdruck Luftfeuchtigkeit
    00:00 +28°C° 0 mm 1 m/S 750 mmHg 44%
    01:00 +27°C° 0 mm 1 m/S 750 mmHg 45%
    02:00 +27°C° 0 mm 1 m/S 750 mmHg 46%
    03:00 +27°C° 0 mm 1 m/S 750 mmHg 46%
    04:00 +28°C° 0 mm 1 m/S 750 mmHg 45%
    05:00 +28°C° 0 mm 1 m/S 751 mmHg 44%
    06:00 +29°C° 0 mm 1 m/S 751 mmHg 43%
    07:00 +31°C° 0 mm 1 m/S 751 mmHg 39%
    08:00 +32°C° 0 mm 2 m/S 751 mmHg 35%
    09:00 +35°C° 0 mm 2 m/S 751 mmHg 31%
    10:00 +36°C° 0 mm 2 m/S 751 mmHg 30%
    11:00 +37°C° 0 mm 3 m/S 750 mmHg 28%
    12:00 +38°C° 0 mm 3 m/S 750 mmHg 26%
    13:00 +38°C° 0 mm 3 m/S 750 mmHg 26%
    14:00 +39°C° 0 mm 3 m/S 750 mmHg 25%
    15:00 +40°C° 0 mm 4 m/S 749 mmHg 25%
    16:00 +40°C° 0 mm 4 m/S 749 mmHg 26%
    17:00 +38°C° 0 mm 4 m/S 749 mmHg 27%
    18:00 +37°C° 0 mm 4 m/S 749 mmHg 28%
    19:00 +35°C° 0 mm 3 m/S 750 mmHg 30%
    20:00 +33°C° 0 mm 3 m/S 750 mmHg 33%
    21:00 +30°C° 0 mm 2 m/S 750 mmHg 35%
    22:00 +29°C° 0 mm 2 m/S 750 mmHg 36%
    23:00 +29°C° 0 mm 2 m/S 750 mmHg 36%

    Morgen, 26 Juni, Dienstag

    Zeit Temperatur Niederschläge Wind Luftdruck Luftfeuchtigkeit
    00:00 +28°C° 0 mm 1 m/S 750 mmHg 37%
    01:00 +28°C° 0 mm 1 m/S 750 mmHg 36%
    02:00 +27°C° 0 mm 1 m/S 750 mmHg 35%
    03:00 +27°C° 0 mm 1 m/S 749 mmHg 34%
    04:00 +28°C° 0 mm 1 m/S 749 mmHg 34%
    05:00 +29°C° 0 mm 1 m/S 749 mmHg 34%
    06:00 +29°C° 0 mm 1 m/S 749 mmHg 33%
    07:00 +31°C° 0 mm 1 m/S 749 mmHg 30%
    08:00 +34°C° 0 mm 2 m/S 749 mmHg 26%
    09:00 +36°C° 0 mm 2 m/S 749 mmHg 23%
    10:00 +37°C° 0 mm 2 m/S 748 mmHg 22%
    11:00 +38°C° 0 mm 2 m/S 748 mmHg 20%
    12:00 +39°C° 0 mm 2 m/S 748 mmHg 19%
    13:00 +40°C° 0 mm 3 m/S 747 mmHg 18%
    14:00 +40°C° 0 mm 3 m/S 747 mmHg 18%
    15:00 +42°C° 0 mm 4 m/S 747 mmHg 18%
    16:00 +41°C° 0 mm 4 m/S 747 mmHg 20%
    17:00 +40°C° 0 mm 4 m/S 747 mmHg 21%
    18:00 +40°C° 0 mm 4 m/S 747 mmHg 23%
    19:00 +37°C° 0 mm 3 m/S 747 mmHg 25%
    20:00 +34°C° 0 mm 3 m/S 747 mmHg 27%
    21:00 +31°C° 0 mm 3 m/S 747 mmHg 29%
    22:00 +30°C° 0 mm 2 m/S 747 mmHg 30%
    23:00 +30°C° 0 mm 2 m/S 747 mmHg 30%

    übermorgen, 27 Juni, Mittwoch

    Zeit Temperatur Niederschläge Wind Luftdruck Luftfeuchtigkeit
    00:00 +29°C° 0 mm 2 m/S 747 mmHg 31%
    01:00 +28°C° 0 mm 1 m/S 747 mmHg 29%
    02:00 +28°C° 0 mm 1 m/S 747 mmHg 28%
    03:00 +28°C° 0 mm 1 m/S 747 mmHg 27%
    04:00 +29°C° 0 mm 1 m/S 747 mmHg 27%
    05:00 +29°C° 0 mm 1 m/S 747 mmHg 27%
    06:00 +30°C° 0 mm 1 m/S 747 mmHg 27%
    07:00 +32°C° 0 mm 2 m/S 747 mmHg 25%
    08:00 +35°C° 0 mm 2 m/S 747 mmHg 22%
    09:00 +37°C° 0 mm 2 m/S 747 mmHg 19%
    10:00 +38°C° 0 mm 2 m/S 747 mmHg 19%
    11:00 +39°C° 0 mm 2 m/S 747 mmHg 18%
    12:00 +40°C° 0 mm 2 m/S 747 mmHg 17%
    13:00 +40°C° 0 mm 3 m/S 746 mmHg 17%
    14:00 +42°C° 0 mm 3 m/S 746 mmHg 17%
    15:00 +42°C° 0 mm 3 m/S 746 mmHg 17%
    16:00 +42°C° 0 mm 3 m/S 746 mmHg 18%
    17:00 +40°C° 0 mm 3 m/S 746 mmHg 20%
    18:00 +39°C° 0 mm 3 m/S 746 mmHg 21%
    19:00 +37°C° 0 mm 3 m/S 747 mmHg 23%
    20:00 +35°C° 0 mm 3 m/S 747 mmHg 25%
    21:00 +33°C° 0 mm 3 m/S 747 mmHg 27%
    22:00 +31°C° 0 mm 3 m/S 748 mmHg 28%
    23:00 +30°C° 0 mm 2 m/S 748 mmHg 28%

    28 Juni, Donnerstag

    Zeit Temperatur Niederschläge Wind Luftdruck Luftfeuchtigkeit
    00:00 +29°C° 0 mm 2 m/S 748 mmHg 29%
    01:00 +29°C° 0 mm 2 m/S 748 mmHg 29%
    02:00 +28°C° 0 mm 1 m/S 748 mmHg 29%
    03:00 +28°C° 0 mm 1 m/S 748 mmHg 29%
    04:00 +29°C° 0 mm 1 m/S 748 mmHg 29%
    05:00 +30°C° 0 mm 1 m/S 748 mmHg 29%
    06:00 +31°C° 0 mm 1 m/S 748 mmHg 29%
    07:00 +32°C° 0 mm 1 m/S 748 mmHg 27%
    08:00 +34°C° 0 mm 1 m/S 748 mmHg 24%
    09:00 +36°C° 0 mm 1 m/S 748 mmHg 21%
    10:00 +38°C° 0 mm 2 m/S 748 mmHg 19%
    11:00 +39°C° 0 mm 2 m/S 748 mmHg 18%
    12:00 +40°C° 0 mm 2 m/S 747 mmHg 17%
    13:00 +42°C° 0 mm 3 m/S 747 mmHg 16%
    14:00 +42°C° 0 mm 3 m/S 747 mmHg 16%
    15:00 +43°C° 0 mm 3 m/S 746 mmHg 15%
    16:00 +42°C° 0 mm 4 m/S 747 mmHg 17%
    17:00 +41°C° 0 mm 4 m/S 747 mmHg 18%
    18:00 +41°C° 0 mm 4 m/S 747 mmHg 19%
    19:00 +37°C° 0 mm 4 m/S 747 mmHg 22%
    20:00 +35°C° 0 mm 3 m/S 747 mmHg 24%
    21:00 +33°C° 0 mm 3 m/S 748 mmHg 26%
    22:00 +31°C° 0 mm 2 m/S 747 mmHg 28%
    23:00 +30°C° 0 mm 2 m/S 747 mmHg 29%

    29 Juni, Freitag

    Zeit Temperatur Niederschläge Wind Luftdruck Luftfeuchtigkeit
    00:00 +29°C° 0 mm 2 m/S 747 mmHg 30%
    01:00 +29°C° 0 mm 2 m/S 747 mmHg 29%
    02:00 +29°C° 0 mm 2 m/S 747 mmHg 29%
    03:00 +28°C° 0 mm 1 m/S 747 mmHg 29%
    04:00 +29°C° 0 mm 1 m/S 747 mmHg 28%
    05:00 +30°C° 0 mm 1 m/S 747 mmHg 28%
    06:00 +31°C° 0 mm 1 m/S 747 mmHg 28%
    07:00 +32°C° 0 mm 1 m/S 747 mmHg 25%
    08:00 +34°C° 0 mm 1 m/S 746 mmHg 21%
    09:00 +37°C° 0 mm 2 m/S 746 mmHg 18%
    10:00 +38°C° 0 mm 2 m/S 746 mmHg 17%
    11:00 +39°C° 0 mm 2 m/S 745 mmHg 16%
    12:00 +42°C° 0 mm 3 m/S 745 mmHg 15%
    13:00 +42°C° 0 mm 3 m/S 745 mmHg 14%
    14:00 +43°C° 0 mm 3 m/S 744 mmHg 14%
    15:00 +43°C° 0 mm 3 m/S 744 mmHg 14%
    16:00 +43°C° 0 mm 3 m/S 744 mmHg 16%
    17:00 +42°C° 0 mm 3 m/S 744 mmHg 17%
    18:00 +41°C° 0 mm 4 m/S 744 mmHg 18%
    19:00 +38°C° 0 mm 3 m/S 745 mmHg 21%
    20:00 +35°C° 0 mm 3 m/S 745 mmHg 23%
    21:00 +33°C° 0 mm 3 m/S 745 mmHg 26%
    22:00 +31°C° 0 mm 3 m/S 745 mmHg 27%
    23:00 +30°C° 0 mm 2 m/S 745 mmHg 28%

    30 Juni, Samstag

    Zeit Temperatur Niederschläge Wind Luftdruck Luftfeuchtigkeit
    00:00 +30°C° 0 mm 2 m/S 745 mmHg 29%
    01:00 +29°C° 0 mm 2 m/S 745 mmHg 29%
    02:00 +29°C° 0 mm 1 m/S 745 mmHg 30%
    03:00 +29°C° 0 mm 1 m/S 745 mmHg 30%
    04:00 +29°C° 0 mm 1 m/S 745 mmHg 30%
    05:00 +30°C° 0 mm 1 m/S 746 mmHg 29%
    06:00 +31°C° 0 mm 1 m/S 746 mmHg 29%
    07:00 +33°C° 0 mm 1 m/S 746 mmHg 26%
    08:00 +35°C° 0 mm 1 m/S 746 mmHg 22%
    09:00 +37°C° 0 mm 1 m/S 746 mmHg 19%
    10:00 +39°C° 0 mm 2 m/S 745 mmHg 18%
    11:00 +40°C° 0 mm 2 m/S 745 mmHg 16%
    12:00 +42°C° 0 mm 3 m/S 745 mmHg 15%
    13:00 +43°C° 0 mm 3 m/S 744 mmHg 15%
    14:00 +43°C° 0 mm 4 m/S 744 mmHg 15%
    15:00 +44°C° 0 mm 4 m/S 744 mmHg 15%
    16:00 +43°C° 0 mm 4 m/S 744 mmHg 16%
    17:00 +43°C° 0 mm 4 m/S 744 mmHg 18%
    18:00 +42°C° 0 mm 4 m/S 744 mmHg 19%
    19:00 +38°C° 0 mm 4 m/S 744 mmHg 21%
    20:00 +36°C° 0 mm 3 m/S 744 mmHg 23%
    21:00 +34°C° 0 mm 3 m/S 745 mmHg 25%
    22:00 +32°C° 0 mm 2 m/S 745 mmHg 25%
    23:00 +31°C° 0 mm 2 m/S 744 mmHg 25%
    Mehr zeigen